Home > Weather > Sidney > Past weeks

Flag for Canada Weather for the Past 2 Weeks in Sidney, British Columbia, Canada

Now
59 °F

Overcast.


Feels Like: 58 °F
Forecast: 55 / 65 °F
Wind: 8 mph from West

Location: Victoria Int. Airportb. C.

Current Time: May 3, 2016 at 7:28:55 AM

Latest Report: May 3, 2016 at 7:00 AM


Visibility: 20 mi

Pressure: 30.00 "Hg

Humidity: 68%

Dew Point: 48 °F

Location of SidneyLocation

Historic Weather in Sidney — Graph

°F

Sidney Temperature Yesterday

Maximum temperature yesterday: 81 °F (at 4:00 PM)
Minimum temperature yesterday: 48 °F (at 5:00 AM)
Average temperature yesterday: 65 °F

High & Low Weather Summary for the Past Weeks

 TemperatureHumidityPressure
High81 °F (May 2, 4:00 PM)94% (Apr 19, 6:00 AM)30.38 "Hg (Apr 19, 6:00 AM)
Low39 °F (Apr 26, 6:00 AM)25% (May 1, 5:00 PM)29.59 "Hg (Apr 22, 8:00 AM)
Average56 °F68%30.01 "Hg
* Reported Apr 18 6:00 AM — May 3 6:00 AM, Sidney, Weather by CustomWeather, © 2016

Note: Actual official high and low records may vary slightly from our data, if they occured in-between our weather recording intervals... More about our weather records

Advertising

Sidney Weather History for the Previous 24 Hours

Scroll right to see more
 ConditionsComfort  
Time TempWeatherWind HumidityBarometerVisibility
6:00 AM
Tue, May 3
59 °FLight rain. Passing clouds.8 mph72%29.98 "Hg20 mi
5:50 AM57 °FLight rain. Passing clouds.6 mph77%29.97 "Hg20 mi
5:00 AM55 °FPassing clouds.5 mph82%29.97 "Hg20 mi
4:00 AM57 °FLight rain. Partly cloudy.8 mph77%29.97 "Hg20 mi
3:53 AM59 °FLight rain. Overcast.9 mph72%29.97 "Hg20 mi
3:00 AM57 °FOvercast.8 mph77%29.95 "Hg20 mi
2:00 AM63 °FLight rain. Overcast.13 mph56%29.95 "Hg20 mi
1:00 AM63 °FPassing clouds.10 mph49%29.95 "Hg30 mi
12:00 AM61 °FPassing clouds.2 mph59%29.94 "Hg30 mi
11:00 PM
Mon, May 2
61 °FPassing clouds.2 mph59%29.92 "Hg30 mi
10:00 PM70 °FPassing clouds.10 mph40%29.91 "Hg30 mi
9:00 PM72 °FPartly sunny.9 mph44%29.89 "Hg20 mi
8:00 PM72 °FPartly sunny.5 mph47%29.89 "Hg30 mi
7:00 PM73 °FScattered clouds.3 mph44%29.88 "Hg30 mi
6:00 PM75 °FScattered clouds.6 mph44%29.88 "Hg30 mi
5:00 PM79 °FPartly sunny.3 mph37%29.88 "Hg30 mi
4:00 PM81 °FScattered clouds.5 mph32%29.90 "Hg30 mi
3:00 PM79 °FPassing clouds.9 mph30%29.92 "Hg30 mi
2:00 PM77 °FPassing clouds.7 mph36%29.94 "Hg30 mi
1:00 PM75 °FSunny.8 mph36%29.96 "Hg30 mi
12:00 PM73 °FSunny.5 mph41%29.97 "Hg30 mi
11:00 AM68 °FSunny.2 mph49%29.98 "Hg30 mi
10:00 AM64 °FMild.6 mph52%29.98 "Hg30 mi
9:00 AM63 °FSunny.2 mph52%29.98 "Hg30 mi
8:00 AM57 °FSunny.7 mph59%29.99 "Hg30 mi
7:00 AM54 °FSunny.7 mph67%29.98 "Hg30 mi
Weather by CustomWeather, © 2016

See weather overviewHow to use our weather pages